• En España
  • Lista de países
  • Para 7 días
  • Temperatura del agua
  • Mapa Satelital
  • El tiempo en el mapa
  • Informadores
  • user-avatar
    Iniciar sesión

    Tiempo cada hora Malanje

    Hoy, 19 Febrero, Lunes

    Tiempo Temperatura Precipitaciones Viento Presión Humedad
    00:00 +21°C° 0,4 mm 1 mps 664 mmHg 97%
    01:00 +21°C° 0,4 mm 1 mps 664 mmHg 97%
    02:00 +20°C° 0,2 mm 1 mps 663 mmHg 97%
    03:00 +20°C° 0,2 mm 1 mps 663 mmHg 98%
    04:00 +20°C° 0,2 mm 1 mps 663 mmHg 98%
    05:00 +20°C° 0,3 mm 1 mps 663 mmHg 98%
    06:00 +20°C° 0,3 mm 1 mps 664 mmHg 97%
    07:00 +20°C° 0,3 mm 1 mps 664 mmHg 97%
    08:00 +21°C° 0,7 mm 1 mps 665 mmHg 96%
    09:00 +22°C° 0,7 mm 1 mps 665 mmHg 94%
    10:00 +23°C° 0,7 mm 1 mps 665 mmHg 92%
    11:00 +23°C° 0,5 mm 1 mps 665 mmHg 91%
    12:00 +24°C° 0,5 mm 1 mps 665 mmHg 89%
    13:00 +24°C° 0,5 mm 1 mps 664 mmHg 88%
    14:00 +24°C° 0,3 mm 1 mps 664 mmHg 87%
    15:00 +25°C° 0,3 mm 1 mps 663 mmHg 86%
    16:00 +25°C° 0,3 mm 1 mps 663 mmHg 84%
    17:00 +24°C° 0,8 mm 1 mps 663 mmHg 88%
    18:00 +22°C° 0,8 mm 1 mps 663 mmHg 92%
    19:00 +21°C° 0,8 mm 1 mps 663 mmHg 96%
    20:00 +21°C° 0,3 mm 1 mps 664 mmHg 97%
    21:00 +21°C° 0,3 mm 1 mps 664 mmHg 97%
    22:00 +19°C° 0,3 mm 2 mps 665 mmHg 98%
    23:00 +19°C° 0,8 mm 2 mps 665 mmHg 98%

    Mañana, 20 Febrero, Martes

    Tiempo Temperatura Precipitaciones Viento Presión Humedad
    00:00 +19°C° 0,8 mm 2 mps 664 mmHg 98%
    01:00 +19°C° 0,8 mm 2 mps 664 mmHg 98%
    02:00 +19°C° 0,7 mm 2 mps 664 mmHg 98%
    03:00 +19°C° 0,7 mm 2 mps 664 mmHg 98%
    04:00 +19°C° 0,7 mm 2 mps 664 mmHg 98%
    05:00 +19°C° 0,4 mm 2 mps 664 mmHg 98%
    06:00 +19°C° 0,4 mm 2 mps 664 mmHg 98%
    07:00 +19°C° 0,4 mm 2 mps 665 mmHg 98%
    08:00 +20°C° 0,1 mm 2 mps 665 mmHg 93%
    09:00 +21°C° 0,1 mm 2 mps 665 mmHg 89%
    10:00 +24°C° 0,1 mm 2 mps 666 mmHg 85%
    11:00 +24°C° 0,5 mm 2 mps 665 mmHg 83%
    12:00 +25°C° 0,5 mm 2 mps 664 mmHg 81%
    13:00 +26°C° 0,5 mm 2 mps 664 mmHg 79%
    14:00 +26°C° 1,1 mm 2 mps 663 mmHg 82%
    15:00 +25°C° 1,1 mm 3 mps 663 mmHg 85%
    16:00 +25°C° 1,1 mm 3 mps 662 mmHg 88%
    17:00 +24°C° 0,5 mm 3 mps 662 mmHg 91%
    18:00 +21°C° 0,5 mm 2 mps 663 mmHg 93%
    19:00 +20°C° 0,5 mm 2 mps 663 mmHg 96%
    20:00 +20°C° 0,6 mm 2 mps 664 mmHg 96%
    21:00 +20°C° 0,6 mm 3 mps 664 mmHg 97%
    22:00 +19°C° 0,6 mm 3 mps 665 mmHg 97%
    23:00 +19°C° 0 mm 3 mps 665 mmHg 98%

    Pasado mañana, 21 Febrero, Miércoles

    Tiempo Temperatura Precipitaciones Viento Presión Humedad
    00:00 +19°C° 0 mm 3 mps 664 mmHg 98%
    01:00 +19°C° 0 mm 3 mps 664 mmHg 98%
    02:00 +19°C° 0 mm 3 mps 663 mmHg 98%
    03:00 +18°C° 0 mm 3 mps 663 mmHg 97%
    04:00 +18°C° 0 mm 3 mps 663 mmHg 97%
    05:00 +18°C° 0 mm 3 mps 664 mmHg 97%
    06:00 +19°C° 0 mm 2 mps 664 mmHg 96%
    07:00 +19°C° 0 mm 2 mps 665 mmHg 96%
    08:00 +19°C° 0,1 mm 2 mps 665 mmHg 92%
    09:00 +20°C° 0,1 mm 2 mps 665 mmHg 89%
    10:00 +21°C° 0,1 mm 3 mps 666 mmHg 85%
    11:00 +24°C° 0,1 mm 3 mps 665 mmHg 79%
    12:00 +26°C° 0,1 mm 3 mps 664 mmHg 72%
    13:00 +27°C° 0,1 mm 4 mps 664 mmHg 65%
    14:00 +27°C° 0,4 mm 4 mps 663 mmHg 70%
    15:00 +26°C° 0,4 mm 4 mps 663 mmHg 75%
    16:00 +26°C° 0,4 mm 4 mps 662 mmHg 79%
    17:00 +24°C° 0,3 mm 3 mps 662 mmHg 84%
    18:00 +22°C° 0,3 mm 3 mps 663 mmHg 89%
    19:00 +20°C° 0,3 mm 2 mps 663 mmHg 94%
    20:00 +20°C° 0 mm 2 mps 663 mmHg 95%
    21:00 +19°C° 0 mm 2 mps 664 mmHg 96%
    22:00 +19°C° 0 mm 2 mps 665 mmHg 97%
    23:00 +19°C° 0 mm 2 mps 664 mmHg 96%

    22 Febrero, Jueves

    Tiempo Temperatura Precipitaciones Viento Presión Humedad
    00:00 +18°C° 0 mm 2 mps 664 mmHg 96%
    01:00 +18°C° 0 mm 2 mps 663 mmHg 95%
    02:00 +18°C° 0 mm 2 mps 663 mmHg 95%
    03:00 +18°C° 0 mm 2 mps 663 mmHg 95%
    04:00 +18°C° 0 mm 1 mps 662 mmHg 95%
    05:00 +19°C° 0 mm 1 mps 663 mmHg 94%
    06:00 +19°C° 0 mm 1 mps 663 mmHg 92%
    07:00 +19°C° 0 mm 1 mps 663 mmHg 91%
    08:00 +20°C° 0 mm 2 mps 664 mmHg 82%
    09:00 +24°C° 0 mm 2 mps 665 mmHg 73%
    10:00 +26°C° 0 mm 2 mps 665 mmHg 63%
    11:00 +27°C° 0,1 mm 2 mps 665 mmHg 62%
    12:00 +27°C° 0,1 mm 2 mps 664 mmHg 61%
    13:00 +28°C° 0,1 mm 2 mps 664 mmHg 60%
    14:00 +28°C° 0,3 mm 2 mps 663 mmHg 63%
    15:00 +27°C° 0,3 mm 2 mps 663 mmHg 67%
    16:00 +27°C° 0,3 mm 2 mps 662 mmHg 70%
    17:00 +25°C° 0,3 mm 2 mps 662 mmHg 76%
    18:00 +24°C° 0,3 mm 1 mps 662 mmHg 82%
    19:00 +22°C° 0,3 mm 1 mps 663 mmHg 88%
    20:00 +21°C° 0,2 mm 1 mps 663 mmHg 89%
    21:00 +21°C° 0,2 mm 1 mps 663 mmHg 91%
    22:00 +21°C° 0,2 mm 1 mps 664 mmHg 92%
    23:00 +20°C° 0,1 mm 1 mps 663 mmHg 92%

    23 Febrero, Viernes

    Tiempo Temperatura Precipitaciones Viento Presión Humedad
    00:00 +20°C° 0,1 mm 1 mps 663 mmHg 92%
    01:00 +18°C° 0,1 mm 0 mps 662 mmHg 92%
    02:00 +17°C° 0 mm 0 mps 662 mmHg 92%
    03:00 +17°C° 0 mm 0 mps 662 mmHg 92%
    04:00 +17°C° 0 mm 0 mps 662 mmHg 92%
    05:00 +17°C° 0 mm 0 mps 662 mmHg 91%
    06:00 +18°C° 0 mm 0 mps 663 mmHg 91%
    07:00 +18°C° 0 mm 0 mps 663 mmHg 90%
    08:00 +20°C° 0 mm 0 mps 664 mmHg 84%
    09:00 +24°C° 0 mm 1 mps 664 mmHg 77%
    10:00 +25°C° 0 mm 1 mps 665 mmHg 71%
    11:00 +26°C° 0 mm 1 mps 664 mmHg 66%
    12:00 +28°C° 0 mm 1 mps 664 mmHg 60%
    13:00 +29°C° 0 mm 1 mps 664 mmHg 55%
    14:00 +29°C° 0 mm 1 mps 663 mmHg 57%
    15:00 +28°C° 0 mm 2 mps 663 mmHg 60%
    16:00 +28°C° 0 mm 2 mps 662 mmHg 62%
    17:00 +26°C° 0,1 mm 2 mps 662 mmHg 69%
    18:00 +24°C° 0,1 mm 1 mps 662 mmHg 76%
    19:00 +22°C° 0,1 mm 1 mps 662 mmHg 82%
    20:00 +22°C° 0 mm 1 mps 663 mmHg 85%
    21:00 +21°C° 0 mm 1 mps 663 mmHg 87%
    22:00 +20°C° 0 mm 1 mps 664 mmHg 89%
    23:00 +20°C° 0 mm 1 mps 663 mmHg 90%

    24 Febrero, Sábado

    Tiempo Temperatura Precipitaciones Viento Presión Humedad
    00:00 +20°C° 0 mm 1 mps 663 mmHg 90%
    01:00 +20°C° 0 mm 1 mps 663 mmHg 91%
    02:00 +19°C° 0 mm 1 mps 663 mmHg 93%
    03:00 +19°C° 0 mm 1 mps 663 mmHg 94%
    04:00 +19°C° 0 mm 1 mps 663 mmHg 96%
    05:00 +19°C° 0 mm 1 mps 663 mmHg 94%
    06:00 +18°C° 0 mm 0 mps 664 mmHg 93%
    07:00 +18°C° 0 mm 0 mps 664 mmHg 91%
    08:00 +22°C° 0 mm 1 mps 665 mmHg 82%
    09:00 +25°C° 0 mm 1 mps 665 mmHg 74%
    10:00 +27°C° 0 mm 1 mps 666 mmHg 65%
    11:00 +28°C° 0,4 mm 2 mps 665 mmHg 64%
    12:00 +28°C° 0,4 mm 2 mps 665 mmHg 63%
    13:00 +29°C° 0,4 mm 2 mps 664 mmHg 62%
    14:00 +28°C° 0,6 mm 2 mps 664 mmHg 66%
    15:00 +28°C° 0,6 mm 2 mps 663 mmHg 70%
    16:00 +27°C° 0,6 mm 2 mps 663 mmHg 73%
    17:00 +25°C° 0,6 mm 2 mps 663 mmHg 80%
    18:00 +23°C° 0,6 mm 2 mps 663 mmHg 86%
    19:00 +20°C° 0,6 mm 2 mps 663 mmHg 92%
    20:00 +20°C° 0,1 mm 2 mps 664 mmHg 93%
    21:00 +21°C° 0,1 mm 1 mps 664 mmHg 94%
    22:00 +20°C° 0,1 mm 1 mps 665 mmHg 94%
    23:00 +20°C° 0,4 mm 1 mps 665 mmHg 95%
    Mostrar más